[[{"header":{"parameterUnit":"m.s-1","parameterCategory":1,"la1":30.2991,"la2":30.254,"lo1":-89.0895,"lo2":-89.0444,"dy":0.0017,"dx":0.0017,"nx":28,"ny":28,"refTime":"2024-02-10T09:00:00:Z","depth":0,"parameterNumber":2,"parameterNumberName":"U-component_of_WINDS"},"data":[0,0,0,0,0,0,0,0,0,0,0,0,0,0,0,0,0,0,0,0,0,0,0,0,0,0,0,0,0,0,0,0,0,0,0,0,0,0,0,0,0,0,0,0,0,0,0,0,0,0,0,0,0,0,0,0,0,0,-2.4351,-2.4352,0,-2.4454,-2.4455,-2.4456,-2.4467,-2.4466,-2.4465,-2.4464,-2.4569,-2.4572,-2.4576,0,0,0,0,0,0,0,0,0,0,0,0,0,-2.4164,-2.4167,-2.4351,-2.4352,-2.4354,-2.4454,-2.4455,-2.4457,-2.4467,-2.4466,-2.4465,-2.4463,-2.4567,-2.4572,-2.4576,0,0,0,0,0,0,0,0,0,0,0,0,0,-2.4254,-2.4168,-2.4351,-2.4371,-2.4374,-2.4454,-2.4455,-2.4457,-2.4467,-2.4466,-2.4464,-2.4463,-2.4566,-2.4571,-2.4577,-2.4644,0,0,-2.4594,-2.4597,0,0,0,0,0,0,0,0,-2.4249,-2.4261,-2.4367,-2.437,-2.4373,-2.4446,-2.4428,-2.452,-2.4468,-2.4432,-2.4464,-2.4462,-2.4529,-2.4538,-2.456,-2.4649,-2.4653,-2.4595,-2.4598,-2.4601,-2.4602,0,0,0,0,0,0,0,-2.4242,-2.4256,-2.4392,-2.4368,-2.4372,-2.4375,-2.4386,-2.4445,-2.4488,-2.4435,-2.4436,-2.4448,-2.453,-2.4555,-2.4563,-2.4655,-2.4595,-2.46,-2.4603,-2.4605,-2.4804,-2.4805,0,0,0,0,0,0,-2.4232,-2.4251,-2.4389,-2.4395,-2.4306,-2.438,-2.4392,-2.4424,-2.4487,-2.4496,-2.4449,-2.4448,-2.4546,-2.4556,-2.4567,-2.4649,-2.4601,-2.4606,-2.4609,-2.4802,-2.4804,-2.4806,0,0,0,0,0,0,-2.4228,-2.4245,-2.4384,-2.4323,-2.4341,-2.4385,-2.4421,-2.4427,-2.4451,-2.4498,-2.4506,-2.4466,-2.4545,-2.4559,-2.4625,-2.4653,-2.4608,-2.4614,-2.48,-2.4803,-2.4805,-2.4814,0,0,0,0,0,0,-2.4223,-2.4243,-2.4269,-2.4324,-2.4345,-2.444,-2.4422,-2.443,-2.4461,-2.4461,-2.4516,-2.4524,-2.4545,-2.4616,-2.463,-2.466,-2.4618,-2.4797,-2.4801,-2.4804,-2.4811,-2.4817,-2.4822,0,0,0,0,0,-2.4216,-2.4267,-2.427,-2.4286,-2.4377,-2.4442,-2.4454,-2.4477,-2.4464,-2.449,-2.452,-2.4522,-2.4648,-2.4623,-2.4639,-2.467,-2.4796,-2.48,-2.4804,-2.4809,-2.4816,-2.4821,0,0,0,0,0,0,-2.4213,-2.4274,-2.4278,-2.4348,-2.439,-2.4444,-2.4477,-2.4483,-2.453,-2.4527,-2.4554,-2.4566,-2.4631,-2.4658,-2.4629,-2.4739,-2.472,-2.4728,-2.4719,-2.4726,-2.473,-2.4722,-2.4623,0,0,0,0,0,-2.4221,-2.4268,-2.4319,-2.4376,-2.4397,-2.4433,-2.4462,-2.4477,-2.4521,-2.4539,-2.4574,-2.4616,-2.4666,-2.4697,-2.4745,-2.4816,-2.4828,-2.4846,-2.4851,-2.4855,-2.4861,-2.49,-2.4909,-2.482,-2.482,-2.482,0,0,-2.4236,-2.4276,-2.4304,-2.4376,-2.441,-2.4459,-2.4448,-2.45,-2.4536,-2.4547,-2.4611,-2.4638,-2.4688,-2.4757,-2.4789,-2.4781,-2.4888,-2.486,-2.4863,-2.4867,-2.4905,-2.4914,-2.4921,-2.4823,-2.4822,-2.4822,0,0,-2.429,-2.4325,-2.4376,-2.441,-2.4462,-2.4487,-2.4499,-2.4553,-2.4571,-2.4637,-2.4646,-2.469,-2.4774,-2.4809,-2.4837,-2.4906,-2.491,-2.4921,-2.4947,-2.4985,-2.4992,-2.4998,-2.5023,-2.5031,-2.4927,-2.4927,-2.4927,0,-2.4302,-2.4376,-2.4401,-2.4453,-2.4484,-2.4497,-2.4549,-2.4582,-2.4647,-2.4668,-2.4659,-2.4765,-2.4799,-2.4877,-2.4894,-2.4917,-2.4932,-2.4914,-2.4989,-2.4996,-2.5002,-2.5025,-2.5034,-2.4928,-2.4928,-2.4928,-2.4928,0,-2.4389,-2.444,-2.4475,-2.4538,-2.4574,-2.4626,-2.4659,-2.4692,-2.4704,-2.473,-2.4797,-2.4839,-2.4895,-2.4915,-2.4927,-2.4995,-2.4988,-2.4984,-2.4965,-2.5011,-2.5033,-2.5042,-2.493,-2.4929,-2.4929,-2.4929,0,0,-2.4441,-2.4518,-2.4531,-2.456,-2.4619,-2.4659,-2.4712,-2.4768,-2.4796,-2.4841,-2.4885,-2.4957,-2.4954,-2.4987,-2.5003,-2.5037,-2.5089,-2.5029,-2.503,-2.5038,-2.5165,-2.5167,-2.5177,-2.5092,-2.5094,-2.5096,-2.5161,0,-2.45,-2.4594,-2.4619,-2.4699,-2.4747,-2.4761,-2.4807,-2.4848,-2.4874,-2.4918,-2.4947,-2.4997,-2.499,-2.5009,-2.5044,-2.5075,-2.5114,-2.5071,-2.5134,-2.5136,-2.5119,-2.5189,-2.5191,-2.525,-2.517,-2.5171,-2.5172,0,-2.4582,-2.4629,-2.4713,-2.4767,-2.4788,-2.4829,-2.4883,-2.4925,-2.4973,-2.4989,-2.5027,-2.5041,-2.5096,-2.5077,-2.5154,-2.5124,-2.5151,-2.5171,-2.5174,-2.5179,-2.5156,-2.5195,-2.527,-2.5278,-2.5187,-2.5185,-2.5184,0,-2.461,-2.4695,-2.4757,-2.4781,-2.4846,-2.4874,-2.4902,-2.4949,-2.4981,-2.5028,-2.505,-2.5103,-2.5132,-2.5173,-2.5201,-2.5184,-2.5276,-2.5258,-2.5291,-2.529,-2.5308,-2.5306,-2.5387,-2.5328,-2.5328,-2.5327,-2.5327,0,-2.4673,-2.4724,-2.477,-2.4808,-2.4866,-2.4895,-2.4951,-2.498,-2.5022,-2.5065,-2.5081,-2.5122,-2.5157,-2.5203,-2.5225,-2.5286,-2.5299,-2.5314,-2.5319,-2.5312,-2.5309,-2.5329,-2.5325,-2.533,-2.5329,-2.5329,-2.5328,0,-2.4714,-2.4747,-2.4815,-2.4871,-2.4886,-2.4926,-2.4975,-2.5012,-2.5039,-2.5095,-2.5109,-2.5152,-2.5207,-2.5239,-2.5308,-2.5323,-2.539,-2.5394,-2.5374,-2.5376,-2.5406,-2.5402,-2.5501,-2.5515,-2.5448,-2.5448,-2.5449,0,-2.4751,-2.479,-2.4851,-2.4882,-2.491,-2.496,-2.4993,-2.5024,-2.5058,-2.5116,-2.5147,-2.5203,-2.5249,-2.5336,-2.5373,-2.5426,-2.5431,-2.5462,-2.5438,-2.543,-2.543,-2.5427,-2.5431,-2.5465,-2.5465,-2.5466,-2.5466,0,-2.4813,-2.4828,-2.4875,-2.4929,-2.4968,-2.5012,-2.5056,-2.508,-2.5118,-2.5156,-2.5212,-2.5248,-2.532,-2.5375,-2.5431,-2.5461,-2.547,-2.5474,-2.5484,-2.5476,-2.5462,-2.5469,-2.5383,-2.5471,-2.547,-2.547,-2.547,-2.5469,-2.4852,-2.4888,-2.4937,-2.4989,-2.5026,-2.5066,-2.5104,-2.5137,-2.5185,-2.5245,-2.5261,-2.532,-2.5368,-2.5445,-2.5476,-2.5523,-2.5518,-2.5532,-2.5536,-2.5539,-2.5539,-2.5456,-2.5533,-2.5533,-2.5533,-2.5533,-2.5533,0,-2.4914,-2.4947,-2.4995,-2.5056,-2.5097,-2.5104,-2.5153,-2.5187,-2.5239,-2.5283,-2.5328,-2.5394,-2.5448,-2.549,-2.5546,-2.5575,-2.5581,-2.5588,-2.5586,-2.5592,-2.5541,-2.5526,-2.5583,-2.5583,-2.5583,-2.5583,-2.5583,-2.5583,-2.4951,-2.5012,-2.5033,-2.5113,-2.5146,-2.5204,-2.5231,-2.5269,-2.5304,-2.5376,-2.5422,-2.5449,-2.5493,-2.5552,-2.5602,-2.5613,-2.5632,-2.5639,-2.5651,-2.5601,-2.5596,-2.5591,-2.5577,-2.5643,-2.5643,-2.5698,-2.5699,-2.5699]},{"header":{"parameterUnit":"m.s-1","parameterCategory":1,"la1":30.2991,"la2":30.254,"lo1":-89.0895,"lo2":-89.0444,"dy":0.0017,"dx":0.0017,"nx":28,"ny":28,"refTime":"2024-02-10T09:00:00:Z","depth":0,"parameterNumber":3,"parameterNumberName":"V-component_of_WINDS"},"data":[0,0,0,0,0,0,0,0,0,0,0,0,0,0,0,0,0,0,0,0,0,0,0,0,0,0,0,0,0,0,0,0,0,0,0,0,0,0,0,0,0,0,0,0,0,0,0,0,0,0,0,0,0,0,0,0,0,0,2.609,2.609,0,2.6119,2.6119,2.612,2.6127,2.6127,2.6126,2.6126,2.6154,2.6155,2.6156,0,0,0,0,0,0,0,0,0,0,0,0,0,2.604,2.6041,2.609,2.609,2.609,2.6119,2.6119,2.612,2.6127,2.6127,2.6126,2.6126,2.6154,2.6155,2.6156,0,0,0,0,0,0,0,0,0,0,0,0,0,2.6065,2.6041,2.609,2.6097,2.6098,2.6119,2.6119,2.612,2.6127,2.6127,2.6126,2.6126,2.6153,2.6155,2.6156,2.617,0,0,2.616,2.6161,0,0,0,0,0,0,0,0,2.6063,2.6066,2.6096,2.6097,2.6098,2.6119,2.6112,2.6137,2.6127,2.6116,2.6126,2.6126,2.6142,2.6145,2.6151,2.6171,2.6173,2.616,2.6161,2.6162,2.6162,0,0,0,0,0,0,0,2.6061,2.6065,2.6101,2.6096,2.6098,2.61,2.6103,2.6117,2.613,2.6117,2.6117,2.6121,2.6143,2.6149,2.6151,2.6173,2.616,2.6162,2.6162,2.6163,2.621,2.621,0,0,0,0,0,0,2.6059,2.6064,2.61,2.6102,2.608,2.6101,2.6104,2.6112,2.613,2.6133,2.6121,2.6121,2.6147,2.615,2.6152,2.6172,2.6162,2.6163,2.6164,2.6209,2.621,2.621,0,0,0,0,0,0,2.6057,2.6062,2.6099,2.6083,2.6088,2.6102,2.6111,2.6113,2.612,2.6134,2.6136,2.6125,2.6147,2.6151,2.6167,2.6173,2.6164,2.6165,2.6209,2.6209,2.621,2.621,0,0,0,0,0,0,2.6056,2.6061,2.6066,2.6083,2.6089,2.6113,2.6111,2.6114,2.6122,2.6123,2.6138,2.614,2.6147,2.6164,2.6168,2.6175,2.6166,2.6208,2.6209,2.621,2.621,2.6211,2.6212,0,0,0,0,0,2.6054,2.6064,2.6067,2.6071,2.6096,2.6113,2.6116,2.6124,2.6123,2.6128,2.6138,2.614,2.6172,2.6166,2.617,2.6177,2.6208,2.6209,2.621,2.6209,2.6211,2.6212,0,0,0,0,0,0,2.6046,2.6066,2.6069,2.6085,2.6098,2.6114,2.6121,2.6125,2.6137,2.6137,2.6146,2.615,2.6166,2.6173,2.6166,2.6193,2.619,2.6192,2.6188,2.619,2.6191,2.6189,2.6167,0,0,0,0,0,2.6047,2.6059,2.6076,2.6088,2.6095,2.6107,2.6115,2.612,2.6133,2.6138,2.6148,2.616,2.6174,2.6182,2.6194,2.6211,2.6215,2.6218,2.6219,2.622,2.6222,2.6233,2.6236,2.6213,2.6213,2.6213,0,0,2.6047,2.606,2.6067,2.6087,2.6097,2.6111,2.6111,2.6124,2.6135,2.614,2.6156,2.6165,2.6179,2.6196,2.6204,2.6202,2.6229,2.6221,2.6222,2.6223,2.6235,2.6237,2.6239,2.6214,2.6214,2.6214,0,0,2.6055,2.6065,2.6078,2.6089,2.6105,2.6114,2.6117,2.6134,2.614,2.6157,2.6162,2.6174,2.6196,2.6206,2.6215,2.623,2.6233,2.6234,2.6239,2.6251,2.6252,2.6254,2.6261,2.6264,2.6235,2.6235,2.6235,0,2.6053,2.6073,2.6083,2.6098,2.6107,2.6115,2.6128,2.6138,2.6157,2.6164,2.6162,2.6192,2.6201,2.6222,2.6227,2.6232,2.6237,2.6232,2.6251,2.6253,2.6255,2.6262,2.6264,2.6235,2.6235,2.6235,2.6235,0,2.6072,2.6086,2.6094,2.6115,2.6125,2.6139,2.6151,2.6161,2.6167,2.6176,2.6194,2.6207,2.6223,2.6228,2.6233,2.6251,2.625,2.625,2.6246,2.6257,2.6264,2.6267,2.6235,2.6235,2.6235,2.6235,0,0,2.6073,2.6102,2.6105,2.6115,2.6135,2.6146,2.6161,2.6179,2.6188,2.6201,2.6215,2.6234,2.6235,2.6245,2.6251,2.6261,2.6275,2.626,2.626,2.6264,2.6298,2.6299,2.6302,2.6277,2.6278,2.6278,2.6298,0,2.6085,2.6112,2.6123,2.6146,2.616,2.6169,2.6182,2.6196,2.6206,2.622,2.623,2.6244,2.6244,2.625,2.626,2.6271,2.6282,2.627,2.629,2.6291,2.6288,2.6305,2.6305,2.6323,2.63,2.63,2.6301,0,2.6101,2.6117,2.6142,2.6163,2.6169,2.6181,2.62,2.6212,2.6229,2.6236,2.6248,2.6254,2.6271,2.6267,2.6291,2.6282,2.6291,2.6298,2.6299,2.6302,2.6297,2.631,2.6329,2.6332,2.6305,2.6304,2.6304,0,2.6102,2.613,2.6149,2.6157,2.6182,2.619,2.6201,2.6217,2.6228,2.6244,2.6252,2.6269,2.6279,2.6292,2.6303,2.6299,2.6327,2.6323,2.6334,2.6334,2.634,2.6339,2.6362,2.6344,2.6344,2.6344,2.6344,0,2.6114,2.6129,2.615,2.6162,2.618,2.6193,2.621,2.6221,2.6236,2.6251,2.6259,2.6272,2.6286,2.6301,2.631,2.633,2.6333,2.634,2.6342,2.634,2.6339,2.6346,2.6346,2.6344,2.6344,2.6344,2.6344,0,2.6118,2.6133,2.6155,2.6177,2.6183,2.6196,2.6215,2.6227,2.6238,2.6257,2.6262,2.6279,2.6298,2.631,2.6334,2.634,2.6362,2.6363,2.6357,2.6358,2.6369,2.6368,2.6398,2.6403,2.638,2.638,2.638,0,2.6125,2.6138,2.6162,2.6174,2.6185,2.6202,2.6214,2.6228,2.624,2.6262,2.6272,2.6292,2.6308,2.6338,2.6353,2.6372,2.6374,2.6383,2.6377,2.6375,2.6376,2.6376,2.6378,2.6384,2.6385,2.6385,2.6385,0,2.6137,2.6144,2.6162,2.6183,2.6198,2.6214,2.6231,2.6239,2.6256,2.627,2.629,2.6304,2.6329,2.635,2.637,2.6381,2.6386,2.6387,2.6391,2.6389,2.6385,2.6389,2.6361,2.6386,2.6386,2.6386,2.6386,2.6386,2.6144,2.6156,2.6177,2.6197,2.6211,2.6228,2.6241,2.6255,2.6273,2.6296,2.6303,2.6325,2.6344,2.6373,2.6384,2.6402,2.6401,2.6406,2.6407,2.6409,2.641,2.6382,2.6405,2.6405,2.6405,2.6405,2.6405,0,2.6157,2.6171,2.619,2.6215,2.6231,2.6236,2.6256,2.6269,2.6288,2.6306,2.6324,2.6349,2.6369,2.6386,2.6407,2.6418,2.6422,2.6424,2.6423,2.6426,2.6408,2.6404,2.6421,2.6421,2.6421,2.6421,2.6421,2.6421,2.6166,2.6188,2.6199,2.6229,2.6243,2.6266,2.6277,2.6293,2.6308,2.6336,2.6354,2.6365,2.6383,2.6407,2.6426,2.6431,2.6439,2.6441,2.6446,2.6429,2.6427,2.6426,2.6421,2.6442,2.6442,2.6463,2.6463,2.6463]}]]